Location: Strawberry
(45.6646°N, 111.9596°W)
Time: 18:43:19
(UTC+00:00)

SR - Pass Details

Date: 09 October 2022
Orbit: 577 x 874 km, 66.7° (Epoch: 05 December)

Event Time Altitude Azimuth Distance (km) Brightness Sun altitude
Rises 01:35:20 0° 171° (S) 3,422 ? -7.9°
Reaches altitude 10° 01:38:16 10° 157° (SSE) 2,509 ? -8.5°
Maximum altitude 01:42:43 23° 107° (ESE) 1,777 ? -9.2°
Drops below altitude 10° 01:47:11 10° 58° (ENE) 2,520 ? -10.0°
Enters shadow 01:49:41 - 46° (NE) 3,293 ? -10.4°
